This is the latest recevied weather packets stored in our database for station/object DC4THF-13. If no packets are shown the sender has not sent any weather packets the latest 10 day(s).
| Time | Temp. | Humidity | Pressure | Rain* | Wind** | Luminosity | Snow |
|---|---|---|---|---|---|---|---|
| 1777149157 | 8.33° C | 60% | 1010.3 hPa | 0 mm | - | - | - |
| 1777148554 | 8.89° C | 60% | 1010.1 hPa | 0 mm | - | - | - |
| 1777147951 | 8.89° C | 60% | 1010 hPa | 0 mm | - | - | - |
| 1777147348 | 9.44° C | 61% | 1009.8 hPa | 0 mm | - | - | - |
| 1777146744 | 10° C | 60% | 1009.4 hPa | 0 mm | - | - | - |
| 1777146141 | 10.56° C | 60% | 1009.1 hPa | 0 mm | - | - | - |
| 1777145538 | 10.56° C | 60% | 1008.6 hPa | 0 mm | - | - | - |
| 1777144998 | 11.11° C | 59% | 1008.4 hPa | 0 mm | - | - | - |
| 1777144392 | 11.67° C | 58% | 1008.1 hPa | 0 mm | - | - | - |
| 1777143789 | 12.22° C | 56% | 1007.9 hPa | 0 mm | - | - | - |
| 1777143185 | 12.78° C | 51% | 1007.6 hPa | 0 mm | - | - | - |
| 1777142582 | 13.33° C | 48% | 1007.4 hPa | 0 mm | - | - | - |
| 1777141978 | 13.89° C | 45% | 1007.1 hPa | 0 mm | - | - | - |
| 1777141374 | 14.44° C | 44% | 1006.8 hPa | 0 mm | - | - | - |
| 1777140771 | 14.44° C | 44% | 1006.5 hPa | 0 mm | - | - | - |
| 1777140167 | 14.44° C | 43% | 1006.4 hPa | 0 mm | - | - | - |
| 1777139563 | 14.44° C | 42% | 1006.4 hPa | 0 mm | - | - | - |
| 1777138958 | 15° C | 42% | 1006.1 hPa | 0 mm | - | - | - |
| 1777138354 | 15.56° C | 41% | 1005.9 hPa | 0 mm | - | - | - |
| 1777137750 | 15.56° C | 40% | 1005.5 hPa | 0 mm | - | - | - |
| 1777137147 | 16.11° C | 40% | 1005.3 hPa | 0 mm | - | - | - |
| 1777136544 | 17.22° C | 38% | 1005.2 hPa | 0 mm | - | - | - |
| 1777135940 | 17.22° C | 40% | 1005.2 hPa | 0 mm | - | - | - |
| 1777135337 | 17.22° C | 36% | 1005.5 hPa | 0 mm | - | - | - |
| 1777134794 | 17.22° C | 36% | 1005.9 hPa | 0 mm | - | - | - |
* Rain latest hour (hover to see other rain measurements)
** Current wind speed in m/s (hover to see current wind gust speed)